Time,TemperatureF,DewpointF,PressureIn,WindDirection,WindDirectionDegrees,WindSpeedMPH,WindSpeedGustMPH,Humidity,HourlyPrecipIn,Conditions,Clouds,dailyrainin,SoftwareType,DateUTC
2013-09-20 00:11:00,67.3,66.7,29.88,WNW,292,0.0,-999.0,98,-99.99,,,0.00,Acu-Link.com,2013-09-20 04:11:00,
2013-09-20 00:26:00,66.9,66.3,29.88,West,270,0.0,-999.0,98,-99.99,,,0.00,Acu-Link.com,2013-09-20 04:26:00,
2013-09-20 00:42:00,66.6,66.0,29.88,WNW,292,0.0,-999.0,98,-99.99,,,0.00,Acu-Link.com,2013-09-20 04:42:00,
2013-09-20 00:57:00,66.4,65.8,29.88,West,270,0.0,-999.0,98,-99.99,,,0.00,Acu-Link.com,2013-09-20 04:57:00,
2013-09-20 01:12:00,66.0,65.4,29.88,WSW,247,0.0,-999.0,98,-99.99,,,0.00,Acu-Link.com,2013-09-20 05:12:00,
2013-09-20 01:27:00,65.8,65.2,29.87,SW,225,0.0,-999.0,98,-99.99,,,0.00,Acu-Link.com,2013-09-20 05:27:00,
2013-09-20 01:43:00,65.8,65.2,29.88,West,270,0.0,-999.0,98,-99.99,,,0.00,Acu-Link.com,2013-09-20 05:43:00,
2013-09-20 01:58:00,65.5,64.9,29.87,West,270,0.0,-999.0,98,-99.99,,,0.00,Acu-Link.com,2013-09-20 05:58:00,
2013-09-20 02:13:00,65.3,64.7,29.88,NW,315,0.0,-999.0,98,-99.99,,,0.00,Acu-Link.com,2013-09-20 06:13:00,
2013-09-20 02:29:00,64.9,64.3,29.87,West,270,0.0,-999.0,98,-99.99,,,0.00,Acu-Link.com,2013-09-20 06:29:00,
2013-09-20 02:44:00,64.9,64.3,29.87,West,270,0.0,-999.0,98,-99.99,,,0.00,Acu-Link.com,2013-09-20 06:44:00,
2013-09-20 02:59:00,64.8,64.2,29.88,West,270,0.0,-999.0,98,-99.99,,,0.00,Acu-Link.com,2013-09-20 06:59:00,
2013-09-20 03:14:00,64.6,64.0,29.87,West,270,0.0,-999.0,98,-99.99,,,0.00,Acu-Link.com,2013-09-20 07:14:00,
2013-09-20 03:30:00,64.4,63.8,29.87,SSW,202,0.0,-999.0,98,-99.99,,,0.00,Acu-Link.com,2013-09-20 07:30:00,
2013-09-20 03:45:00,64.4,63.8,29.87,NW,315,0.0,-999.0,98,-99.99,,,0.00,Acu-Link.com,2013-09-20 07:45:00,
2013-09-20 04:00:00,64.2,63.6,29.87,WSW,247,0.0,-999.0,98,-99.99,,,0.00,Acu-Link.com,2013-09-20 08:00:00,
2013-09-20 04:16:00,64.2,63.6,29.87,SSE,157,0.0,-999.0,98,-99.99,,,0.00,Acu-Link.com,2013-09-20 08:16:00,
2013-09-20 04:32:00,64.0,63.4,29.87,SW,225,0.0,-999.0,98,-99.99,,,0.00,Acu-Link.com,2013-09-20 08:32:00,
2013-09-20 04:47:00,64.0,63.4,29.87,West,270,0.0,-999.0,98,-99.99,,,0.00,Acu-Link.com,2013-09-20 08:47:00,
2013-09-20 05:02:00,63.9,63.3,29.88,WNW,292,0.0,-999.0,98,-99.99,,,0.00,Acu-Link.com,2013-09-20 09:02:00,
2013-09-20 05:18:00,63.9,63.3,29.87,West,270,0.0,-999.0,98,-99.99,,,0.00,Acu-Link.com,2013-09-20 09:18:00,
2013-09-20 05:33:00,63.9,63.3,29.87,WNW,292,0.0,-999.0,98,-99.99,,,0.00,Acu-Link.com,2013-09-20 09:33:00,
2013-09-20 05:48:00,63.5,62.9,29.87,WSW,247,0.0,-999.0,98,-99.99,,,0.00,Acu-Link.com,2013-09-20 09:48:00,
2013-09-20 06:03:00,63.3,62.7,29.87,WSW,247,0.0,-999.0,98,-99.99,,,0.00,Acu-Link.com,2013-09-20 10:03:00,
2013-09-20 06:18:00,63.3,62.7,29.87,WNW,292,0.0,-999.0,98,-99.99,,,0.00,Acu-Link.com,2013-09-20 10:18:00,
2013-09-20 06:33:00,63.1,62.5,29.87,West,270,0.0,-999.0,98,-99.99,,,0.00,Acu-Link.com,2013-09-20 10:33:00,
2013-09-20 06:49:00,63.1,62.5,29.87,West,270,0.0,-999.0,98,-99.99,,,0.00,Acu-Link.com,2013-09-20 10:49:00,
2013-09-20 07:04:00,63.1,62.5,29.87,SSE,157,0.0,-999.0,98,-99.99,,,0.00,Acu-Link.com,2013-09-20 11:04:00,
2013-09-20 07:19:00,63.0,62.4,29.87,SW,225,0.0,-999.0,98,-99.99,,,0.00,Acu-Link.com,2013-09-20 11:19:00,
2013-09-20 07:35:00,63.0,62.4,29.88,SW,225,0.0,-999.0,98,-99.99,,,0.00,Acu-Link.com,2013-09-20 11:35:00,
2013-09-20 07:50:00,63.0,62.4,29.88,West,270,0.0,-999.0,98,-99.99,,,0.00,Acu-Link.com,2013-09-20 11:50:00,
2013-09-20 08:05:00,64.0,63.4,29.88,WSW,247,0.0,-999.0,98,-99.99,,,0.00,Acu-Link.com,2013-09-20 12:05:00,
2013-09-20 08:20:00,64.8,64.2,29.88,SSW,202,0.0,-999.0,98,-99.99,,,0.00,Acu-Link.com,2013-09-20 12:20:00,
2013-09-20 08:35:00,65.3,64.7,29.88,WSW,247,0.0,-999.0,98,-99.99,,,0.00,Acu-Link.com,2013-09-20 12:35:00,
2013-09-20 08:51:00,66.4,65.8,29.88,West,270,0.0,-999.0,98,-99.99,,,0.00,Acu-Link.com,2013-09-20 12:51:00,
2013-09-20 09:06:00,67.5,66.9,29.88,NW,315,0.0,-999.0,98,-99.99,,,0.00,Acu-Link.com,2013-09-20 13:06:00,
2013-09-20 09:21:00,68.7,68.1,29.88,WSW,247,0.0,-999.0,98,-99.99,,,0.00,Acu-Link.com,2013-09-20 13:21:00,
2013-09-20 09:37:00,70.5,69.9,29.88,NNW,337,0.0,-999.0,98,-99.99,,,0.00,Acu-Link.com,2013-09-20 13:37:00,
2013-09-20 09:52:00,73.4,72.8,29.88,SE,135,2.7,-999.0,98,-99.99,,,0.00,Acu-Link.com,2013-09-20 13:52:00,
2013-09-20 10:07:00,77.2,76.6,29.88,ESE,112,1.7,-999.0,98,-99.99,,,0.00,Acu-Link.com,2013-09-20 14:07:00,
2013-09-20 10:22:00,79.2,77.0,29.88,SSW,202,0.0,-999.0,93,-99.99,,,0.00,Acu-Link.com,2013-09-20 14:22:00,
2013-09-20 10:38:00,82.0,74.1,29.88,SE,135,2.2,-999.0,77,-99.99,,,0.00,Acu-Link.com,2013-09-20 14:38:00,
2013-09-20 10:53:00,84.2,71.6,29.88,ESE,112,2.2,-999.0,66,-99.99,,,0.00,Acu-Link.com,2013-09-20 14:53:00,
2013-09-20 11:08:00,84.6,72.4,29.88,East,90,2.2,-999.0,67,-99.99,,,0.00,Acu-Link.com,2013-09-20 15:08:00,
2013-09-20 11:23:00,87.1,70.5,29.87,ESE,112,2.7,-999.0,58,-99.99,,,0.00,Acu-Link.com,2013-09-20 15:23:00,
2013-09-20 11:38:00,86.9,70.3,29.86,ESE,112,2.2,-999.0,58,-99.99,,,0.00,Acu-Link.com,2013-09-20 15:38:00,
2013-09-20 11:53:00,87.8,68.5,29.86,ESE,112,2.7,-999.0,53,-99.99,,,0.00,Acu-Link.com,2013-09-20 15:53:00,
2013-09-20 12:09:00,90.3,68.5,29.85,ESE,112,2.2,-999.0,49,-99.99,,,0.00,Acu-Link.com,2013-09-20 16:09:00,
2013-09-20 12:24:00,89.4,69.4,29.85,NNE,22,2.2,-999.0,52,-99.99,,,0.00,Acu-Link.com,2013-09-20 16:24:00,
2013-09-20 12:39:00,92.8,68.9,29.84,ESE,112,3.2,-999.0,46,-99.99,,,0.00,Acu-Link.com,2013-09-20 16:39:00,
2013-09-20 12:55:00,93.0,69.1,29.84,ESE,112,2.2,-999.0,46,-99.99,,,0.00,Acu-Link.com,2013-09-20 16:55:00,
2013-09-20 13:10:00,91.8,68.7,29.83,SW,225,2.2,-999.0,47,-99.99,,,0.00,Acu-Link.com,2013-09-20 17:10:00,
2013-09-20 13:25:00,91.9,67.5,29.82,SSW,202,1.7,-999.0,45,-99.99,,,0.00,Acu-Link.com,2013-09-20 17:25:00,
2013-09-20 13:41:00,91.6,67.8,29.80,SE,135,0.0,-999.0,46,-99.99,,,0.00,Acu-Link.com,2013-09-20 17:41:00,
2013-09-20 13:56:00,91.6,67.2,29.80,South,180,0.0,-999.0,45,-99.99,,,0.00,Acu-Link.com,2013-09-20 17:56:00,
2013-09-20 14:11:00,91.6,67.2,29.79,South,180,2.2,-999.0,45,-99.99,,,0.00,Acu-Link.com,2013-09-20 18:11:00,
2013-09-20 14:26:00,90.9,67.2,29.77,NW,315,3.2,-999.0,46,-99.99,,,0.00,Acu-Link.com,2013-09-20 18:26:00,
2013-09-20 14:41:00,91.6,65.9,29.77,NW,315,1.7,-999.0,43,-99.99,,,0.00,Acu-Link.com,2013-09-20 18:41:00,
2013-09-20 14:57:00,88.7,65.8,29.75,ESE,112,0.0,-999.0,47,-99.99,,,0.00,Acu-Link.com,2013-09-20 18:57:00,
2013-09-20 15:12:00,88.7,65.8,29.75,East,90,1.7,-999.0,47,-99.99,,,0.00,Acu-Link.com,2013-09-20 19:12:00,
2013-09-20 15:27:00,87.8,66.2,29.74,ESE,112,2.7,-999.0,49,-99.99,,,0.00,Acu-Link.com,2013-09-20 19:27:00,
2013-09-20 15:43:00,88.3,64.9,29.73,ESE,112,2.7,-999.0,46,-99.99,,,0.00,Acu-Link.com,2013-09-20 19:43:00,
2013-09-20 15:58:00,88.3,64.9,29.73,SE,135,0.0,-999.0,46,-99.99,,,0.00,Acu-Link.com,2013-09-20 19:58:00,
2013-09-20 16:13:00,89.4,65.9,29.73,West,270,0.0,-999.0,46,-99.99,,,0.00,Acu-Link.com,2013-09-20 20:13:00,
2013-09-20 16:29:00,90.3,66.0,29.73,SE,135,0.0,-999.0,45,-99.99,,,0.00,Acu-Link.com,2013-09-20 20:29:00,
2013-09-20 16:44:00,90.9,66.6,29.72,East,90,0.0,-999.0,45,-99.99,,,0.00,Acu-Link.com,2013-09-20 20:44:00,
2013-09-20 16:59:00,93.2,65.2,29.71,ESE,112,1.1,-999.0,40,-99.99,,,0.00,Acu-Link.com,2013-09-20 20:59:00,
2013-09-20 17:14:00,91.8,66.7,29.71,SSE,157,0.0,-999.0,44,-99.99,,,0.00,Acu-Link.com,2013-09-20 21:14:00,
2013-09-20 17:30:00,88.3,66.7,29.71,West,270,0.0,-999.0,49,-99.99,,,0.00,Acu-Link.com,2013-09-20 21:30:00,
2013-09-20 17:45:00,86.5,66.2,29.71,SE,135,1.7,-999.0,51,-99.99,,,0.00,Acu-Link.com,2013-09-20 21:45:00,
2013-09-20 18:00:00,85.6,67.5,29.71,ESE,112,1.1,-999.0,55,-99.99,,,0.00,Acu-Link.com,2013-09-20 22:00:00,
2013-09-20 18:16:00,84.7,68.3,29.71,ESE,112,0.0,-999.0,58,-99.99,,,0.00,Acu-Link.com,2013-09-20 22:16:00,
2013-09-20 18:31:00,83.3,68.4,29.70,SSE,157,0.0,-999.0,61,-99.99,,,0.00,Acu-Link.com,2013-09-20 22:31:00,
2013-09-20 18:46:00,82.4,68.5,29.69,ESE,112,0.0,-999.0,63,-99.99,,,0.00,Acu-Link.com,2013-09-20 22:46:00,
2013-09-20 19:01:00,81.5,70.7,29.69,SSE,157,0.0,-999.0,70,-99.99,,,0.00,Acu-Link.com,2013-09-20 23:01:00,
2013-09-20 19:17:00,80.4,72.1,29.69,WSW,247,0.0,-999.0,76,-99.99,,,0.00,Acu-Link.com,2013-09-20 23:17:00,
2013-09-20 19:32:00,79.0,73.4,29.68,ESE,112,0.0,-999.0,83,-99.99,,,0.00,Acu-Link.com,2013-09-20 23:32:00,
2013-09-20 19:47:00,77.7,73.9,29.68,ESE,112,0.0,-999.0,88,-99.99,,,0.00,Acu-Link.com,2013-09-20 23:47:00,
2013-09-20 20:02:00,76.8,76.2,29.68,NW,315,0.0,-999.0,98,-99.99,,,0.00,Acu-Link.com,2013-09-21 00:02:00,
2013-09-20 20:18:00,75.6,75.0,29.68,NW,315,0.0,-999.0,98,-99.99,,,0.00,Acu-Link.com,2013-09-21 00:18:00,
2013-09-20 20:33:00,74.7,74.1,29.69,NW,315,0.0,-999.0,98,-99.99,,,0.00,Acu-Link.com,2013-09-21 00:33:00,
2013-09-20 20:48:00,73.9,73.3,29.69,NW,315,0.0,-999.0,98,-99.99,,,0.00,Acu-Link.com,2013-09-21 00:48:00,
2013-09-20 21:03:00,73.9,73.3,29.69,NW,315,0.0,-999.0,98,-99.99,,,0.00,Acu-Link.com,2013-09-21 01:03:00,
2013-09-20 21:18:00,73.9,73.3,29.69,WSW,247,0.0,-999.0,98,-99.99,,,0.00,Acu-Link.com,2013-09-21 01:18:00,
2013-09-20 21:34:00,73.9,73.3,29.69,SSE,157,0.0,-999.0,98,-99.99,,,0.00,Acu-Link.com,2013-09-21 01:34:00,
2013-09-20 21:49:00,73.9,73.3,29.70,WSW,247,0.0,-999.0,98,-99.99,,,0.00,Acu-Link.com,2013-09-21 01:49:00,
2013-09-20 22:04:00,73.8,73.2,29.70,West,270,0.0,-999.0,98,-99.99,,,0.00,Acu-Link.com,2013-09-21 02:04:00,
2013-09-20 22:19:00,73.8,73.2,29.70,SW,225,0.0,-999.0,98,-99.99,,,0.00,Acu-Link.com,2013-09-21 02:19:00,
2013-09-20 22:35:00,73.8,73.2,29.70,West,270,0.0,-999.0,98,-99.99,,,0.00,Acu-Link.com,2013-09-21 02:35:00,
2013-09-20 22:50:00,73.8,73.2,29.70,WNW,292,0.0,-999.0,98,-99.99,,,0.00,Acu-Link.com,2013-09-21 02:50:00,
2013-09-20 23:05:00,74.1,73.5,29.70,ENE,67,0.0,-999.0,98,-99.99,,,0.00,Acu-Link.com,2013-09-21 03:05:00,
2013-09-20 23:20:00,74.8,74.2,29.70,ESE,112,1.7,-999.0,98,-99.99,,,0.00,Acu-Link.com,2013-09-21 03:20:00,
2013-09-20 23:36:00,75.2,74.6,29.69,East,90,0.0,-999.0,98,-99.99,,,0.00,Acu-Link.com,2013-09-21 03:36:00,